QPF
0.00 0.00 0.00 0.00 0.00 0.00 0.01 0.01 0.01 0.02 0.02 0.02 0.01 0.01 0.01 0.01 0.01 0.02 0.01 0.01 0.01 0.01 0.02 0.04 0.07 0.04 0.03 0.03 0.03 0.02 0.02 0.01 0.00 0.00 0.00 0.01 0.01 0.01 0.02 0.01 0.01 0.01 0.01 0.02 0.02 0.02 0.03 0.03 0.03
0.00 0.00 0.00 0.00 0.00 0.00 0.01 0.01 0.03 0.01 0.01 0.02 0.02 0.01 0.01 0.01 0.01 0.01 0.01 0.01 0.01 0.01 0.01 0.02 0.04 0.05 0.04 0.03 0.03 0.02 0.01 0.01 0.00 0.00 0.00 0.01 0.01 0.02 0.02 0.02 0.01 0.01 0.01 0.01 0.01 0.01 0.02 0.03 0.03
0.00 0.00 0.00 0.00 0.00 0.00 0.01 0.01 0.01 0.01 0.02 0.02 0.01 0.01 0.01 0.01 0.01 0.01 0.01 0.01 0.00 0.00 0.01 0.01 0.02 0.03 0.05 0.05 0.03 0.02 0.01 0.01 0.01 0.00 0.01 0.01 0.01 0.01 0.01 0.02 0.02 0.01 0.01 0.01 0.01 0.01 0.01 0.02 0.02
0.00 0.00 0.00 0.00 0.00 0.00 0.00 0.01 0.01 0.01 0.01 0.01 0.01 0.01 0.01 0.01 0.01 0.00 0.01 0.01 0.00 0.01 0.01 0.02 0.01 0.02 0.03 0.05 0.04 0.02 0.01 0.01 0.01 0.01 0.01 0.01 0.01 0.01 0.01 0.02 0.03 0.03 0.02 0.02 0.01 0.01 0.02 0.02 0.02
0.00 0.00 0.00 0.00 0.00 0.00 0.00 0.01 0.01 0.01 0.02 0.01 0.01 0.01 0.01 0.01 0.01 0.00 0.01 0.01 0.01 0.01 0.01 0.02 0.01 0.02 0.03 0.07 0.04 0.02 0.02 0.01 0.01 0.01 0.01 0.01 0.01 0.01 0.01 0.02 0.03 0.04 0.03 0.02 0.02 0.02 0.02 0.02 0.02
0.00 0.00 0.00 0.00 0.00 0.00 0.01 0.01 0.02 0.02 0.01 0.01 0.00 0.00 0.01 0.01 0.01 0.01 0.01 0.01 0.00 0.00 0.02 0.03 0.02 0.02 0.03 0.07 0.04 0.02 0.02 0.02 0.01 0.01 0.01 0.01 0.01 0.01 0.02 0.03 0.04 0.04 0.03 0.03 0.02 0.03 0.03 0.03 0.03
0.00 0.00 0.00 0.00 0.00 0.01 0.01 0.01 0.05 0.04 0.02 0.01 0.01 0.01 0.01 0.02 0.01 0.02 0.01 0.01 0.00 0.00 0.01 0.04 0.04 0.03 0.03 0.07 0.04 0.02 0.02 0.02 0.02 0.01 0.01 0.02 0.02 0.01 0.02 0.04 0.05 0.04 0.04 0.03 0.03 0.03 0.03 0.03 0.03
0.00 0.00 0.00 0.00 0.00 0.01 0.01 0.01 0.03 0.03 0.02 0.04 0.01 0.01 0.01 0.02 0.03 0.04 0.03 0.02 0.01 0.01 0.01 0.03 0.05 0.06 0.04 0.05 0.04 0.03 0.03 0.02 0.01 0.02 0.02 0.02 0.02 0.02 0.03 0.03 0.04 0.03 0.06 0.05 0.03 0.03 0.04 0.04 0.05
0.00 0.00 0.00 0.00 0.00 0.00 0.01 0.01 0.03 0.02 0.02 0.03 0.01 0.01 0.01 0.02 0.05 0.08 0.04 0.02 0.02 0.02 0.02 0.02 0.05 0.08 0.04 0.03 0.03 0.03 0.03 0.02 0.02 0.02 0.02 0.03 0.03 0.02 0.02 0.02 0.03 0.03 0.05 0.08 0.05 0.05 0.05 0.05 0.04
0.00 0.01 0.00 0.00 0.00 0.00 0.00 0.01 0.02 0.02 0.03 0.02 0.01 0.00 0.01 0.02 0.05 0.06 0.05 0.03 0.03 0.03 0.03 0.02 0.03 0.08 0.07 0.03 0.03 0.04 0.04 0.02 0.02 0.02 0.02 0.02 0.02 0.03 0.03 0.03 0.03 0.03 0.04 0.08 0.07 0.05 0.04 0.04 0.02
0.00 0.01 0.01 0.01 0.01 0.00 0.01 0.01 0.02 0.03 0.04 0.03 0.01 0.01 0.01 0.02 0.02 0.03 0.05 0.04 0.02 0.02 0.04 0.05 0.05 0.07 0.08 0.06 0.05 0.05 0.05 0.04 0.03 0.03 0.03 0.02 0.02 0.02 0.03 0.04 0.04 0.04 0.04 0.05 0.06 0.05 0.03 0.02 0.02
0.01 0.01 0.01 0.01 0.01 0.01 0.01 0.01 0.00 0.01 0.03 0.02 0.01 0.01 0.02 0.02 0.01 0.01 0.02 0.03 0.03 0.02 0.04 0.04 0.06 0.07 0.07 0.08 0.08 0.08 0.09 0.08 0.06 0.05 0.05 0.05 0.04 0.03 0.04 0.04 0.05 0.05 0.05 0.05 0.06 0.06 0.04 0.03 0.03
0.01 0.01 0.01 0.01 0.02 0.01 0.00 0.00 0.00 0.00 0.01 0.01 0.01 0.01 0.02 0.03 0.03 0.03 0.03 0.04 0.04 0.05 0.03 0.03 0.05 0.06 0.07 0.08 0.08 0.08 0.10 0.10 0.09 0.08 0.07 0.07 0.06 0.06 0.06 0.07 0.08 0.08 0.07 0.07 0.08 0.07 0.05 0.04 0.03
0.01 0.01 0.01 0.01 0.01 0.01 0.01 0.01 0.00 0.01 0.01 0.01 0.01 0.01 0.02 0.02 0.03 0.03 0.03 0.04 0.05 0.06 0.05 0.04 0.04 0.05 0.06 0.07 0.07 0.08 0.08 0.08 0.08 0.10 0.09 0.08 0.08 0.08 0.07 0.08 0.09 0.09 0.09 0.08 0.09 0.09 0.07 0.05 0.04
0.00 0.00 0.00 0.01 0.01 0.00 0.00 0.00 0.01 0.01 0.01 0.01 0.01 0.01 0.01 0.03 0.04 0.04 0.04 0.04 0.04 0.05 0.05 0.05 0.05 0.06 0.07 0.07 0.07 0.08 0.07 0.06 0.06 0.07 0.07 0.06 0.06 0.07 0.08 0.10 0.11 0.10 0.11 0.12 0.12 0.11 0.10 0.07 0.05
0.00 0.00 0.00 0.00 0.00 0.00 0.00 0.01 0.01 0.01 0.02 0.02 0.02 0.02 0.02 0.04 0.05 0.04 0.05 0.05 0.06 0.05 0.04 0.04 0.04 0.06 0.07 0.07 0.09 0.09 0.09 0.07 0.07 0.06 0.06 0.07 0.08 0.08 0.07 0.07 0.09 0.09 0.08 0.10 0.13 0.13 0.10 0.08 0.06
0.00 0.00 0.00 0.01 0.01 0.01 0.00 0.01 0.01 0.01 0.02 0.03 0.03 0.03 0.03 0.05 0.06 0.06 0.06 0.05 0.06 0.05 0.04 0.04 0.05 0.05 0.07 0.10 0.11 0.10 0.10 0.09 0.09 0.07 0.05 0.07 0.08 0.09 0.11 0.10 0.07 0.07 0.07 0.06 0.08 0.11 0.10 0.08 0.06
0.00 0.00 0.01 0.01 0.01 0.01 0.01 0.01 0.01 0.01 0.02 0.03 0.04 0.04 0.04 0.04 0.05 0.06 0.05 0.04 0.04 0.04 0.03 0.05 0.05 0.05 0.06 0.07 0.09 0.09 0.08 0.08 0.08 0.08 0.07 0.08 0.10 0.09 0.10 0.13 0.13 0.09 0.07 0.06 0.06 0.07 0.07 0.07 0.06
0.00 0.00 0.00 0.01 0.00 0.01 0.01 0.01 0.01 0.02 0.03 0.04 0.04 0.03 0.03 0.04 0.03 0.03 0.03 0.02 0.02 0.02 0.03 0.02 0.03 0.04 0.05 0.04 0.04 0.06 0.06 0.06 0.06 0.06 0.07 0.08 0.09 0.11 0.09 0.07 0.10 0.11 0.09 0.07 0.06 0.07 0.07 0.06 0.07
0.00 0.00 0.00 0.01 0.01 0.01 0.01 0.01 0.01 0.02 0.02 0.03 0.03 0.03 0.04 0.04 0.03 0.02 0.02 0.02 0.01 0.02 0.02 0.02 0.02 0.03 0.03 0.03 0.03 0.03 0.04 0.04 0.05 0.05 0.06 0.07 0.09 0.09 0.11 0.09 0.06 0.07 0.08 0.07 0.07 0.08 0.08 0.07 0.08
0.00 0.00 0.00 0.00 0.01 0.01 0.01 0.01 0.01 0.01 0.01 0.01 0.02 0.03 0.04 0.05 0.04 0.02 0.01 0.01 0.01 0.01 0.01 0.01 0.01 0.01 0.02 0.03 0.02 0.02 0.03 0.03 0.03 0.03 0.04 0.05 0.07 0.06 0.06 0.06 0.07 0.08 0.08 0.08 0.08 0.07 0.08 0.08 0.07
0.00 0.00 0.01 0.01 0.01 0.01 0.01 0.01 0.01 0.01 0.01 0.01 0.02 0.03 0.03 0.03 0.03 0.02 0.01 0.01 0.01 0.01 0.00 0.01 0.01 0.01 0.02 0.02 0.02 0.02 0.03 0.04 0.03 0.04 0.04 0.04 0.05 0.06 0.05 0.04 0.04 0.06 0.08 0.08 0.08 0.07 0.07 0.08 0.08
0.00 0.01 0.01 0.01 0.01 0.01 0.01 0.02 0.02 0.01 0.01 0.01 0.01 0.02 0.03 0.04 0.03 0.02 0.01 0.01 0.01 0.01 0.01 0.01 0.01 0.01 0.01 0.01 0.02 0.02 0.02 0.02 0.02 0.03 0.04 0.04 0.04 0.05 0.05 0.04 0.04 0.05 0.06 0.08 0.09 0.09 0.09 0.08 0.07
0.00 0.01 0.01 0.01 0.01 0.02 0.02 0.01 0.01 0.01 0.01 0.01 0.01 0.03 0.04 0.04 0.04 0.02 0.01 0.01 0.01 0.01 0.01 0.01 0.01 0.01 0.01 0.02 0.02 0.01 0.01 0.01 0.01 0.01 0.02 0.02 0.04 0.05 0.07 0.06 0.05 0.05 0.05 0.05 0.08 0.09 0.08 0.08 0.07
0.00 0.01 0.03 0.03 0.03 0.02 0.01 0.01 0.01 0.01 0.01 0.01 0.01 0.03 0.04 0.03 0.03 0.02 0.02 0.01 0.01 0.01 0.01 0.01 0.01 0.01 0.02 0.02 0.02 0.02 0.02 0.01 0.00 0.01 0.01 0.01 0.02 0.03 0.05 0.06 0.05 0.05 0.04 0.04 0.06 0.09 0.10 0.09 0.08
0.00 0.00 0.02 0.02 0.01 0.01 0.01 0.01 0.02 0.01 0.01 0.01 0.01 0.02 0.03 0.02 0.02 0.02 0.02 0.01 0.01 0.01 0.01 0.01 0.01 0.01 0.01 0.01 0.01 0.01 0.01 0.01 0.01 0.01 0.01 0.01 0.02 0.02 0.02 0.04 0.04 0.04 0.04 0.03 0.04 0.05 0.06 0.07 0.08
0.00 0.00 0.00 0.00 0.00 0.00 0.00 0.01 0.01 0.01 0.01 0.01 0.01 0.01 0.02 0.02 0.03 0.02 0.02 0.01 0.01 0.01 0.01 0.01 0.01 0.01 0.01 0.01 0.01 0.01 0.01 0.01 0.01 0.01 0.01 0.01 0.01 0.02 0.02 0.03 0.03 0.03 0.03 0.04 0.04 0.04 0.04 0.05 0.05
0.00 0.00 0.00 0.00 0.00 0.00 0.00 0.01 0.01 0.00 0.00 0.00 0.01 0.01 0.01 0.02 0.03 0.02 0.01 0.01 0.01 0.01 0.01 0.01 0.01 0.01 0.01 0.01 0.01 0.01 0.01 0.01 0.01 0.01 0.01 0.01 0.01 0.02 0.02 0.02 0.02 0.03 0.04 0.04 0.04 0.05 0.04 0.04 0.03
0.00 0.00 0.00 0.00 0.00 0.00 0.00 0.01 0.00 0.00 0.00 0.01 0.01 0.01 0.02 0.02 0.02 0.01 0.01 0.01 0.01 0.00 0.01 0.01 0.01 0.01 0.01 0.02 0.02 0.02 0.04 0.04 0.04 0.04 0.04 0.04 0.04 0.03 0.03 0.03 0.03 0.04 0.04 0.05 0.05 0.05 0.05 0.04 0.03
0.00 0.00 0.00 0.00 0.00 0.00 0.00 0.01 0.00 0.00 0.01 0.01 0.01 0.02 0.02 0.02 0.02 0.01 0.01 0.01 0.00 0.01 0.01 0.01 0.01 0.01 0.02 0.03 0.04 0.04 0.07 0.08 0.07 0.06 0.07 0.07 0.07 0.05 0.03 0.03 0.04 0.04 0.03 0.03 0.04 0.05 0.05 0.05 0.05
MSLP
1009.57 1010.63 1011.76 1012.80 1013.60 1014.06 1014.15 1013.93 1013.50 1012.99 1012.57 1012.31 1012.26 1012.38 1012.60 1012.79 1012.85 1012.69 1012.30 1011.71 1011.01 1010.31 1009.71 1009.30 1009.12 1009.14 1009.31 1009.56 1009.80 1010.00 1010.13 1010.20 1010.24 1010.31 1010.44 1010.65 1010.95 1011.32 1011.71 1012.09 1012.44 1012.75 1013.01 1013.26 1013.51 1013.80 1014.13 1014.50 1014.90
1010.15 1011.32 1012.47 1013.44 1014.09 1014.35 1014.22 1013.77 1013.15 1012.51 1011.99 1011.70 1011.65 1011.80 1012.06 1012.30 1012.41 1012.31 1011.98 1011.46 1010.83 1010.21 1009.69 1009.34 1009.21 1009.26 1009.45 1009.69 1009.93 1010.12 1010.25 1010.32 1010.37 1010.45 1010.59 1010.81 1011.10 1011.43 1011.79 1012.13 1012.44 1012.72 1012.96 1013.20 1013.45 1013.74 1014.08 1014.46 1014.85
1010.86 1012.07 1013.17 1014.02 1014.47 1014.51 1014.16 1013.52 1012.75 1012.02 1011.46 1011.16 1011.13 1011.30 1011.59 1011.85 1011.98 1011.90 1011.62 1011.16 1010.62 1010.09 1009.67 1009.42 1009.35 1009.45 1009.64 1009.88 1010.09 1010.25 1010.35 1010.41 1010.46 1010.54 1010.68 1010.90 1011.17 1011.49 1011.81 1012.11 1012.39 1012.64 1012.87 1013.11 1013.38 1013.69 1014.04 1014.42 1014.82
1011.63 1012.81 1013.80 1014.46 1014.70 1014.51 1013.97 1013.19 1012.34 1011.58 1011.03 1010.76 1010.76 1010.96 1011.25 1011.51 1011.63 1011.57 1011.31 1010.92 1010.47 1010.05 1009.74 1009.58 1009.59 1009.72 1009.91 1010.12 1010.28 1010.39 1010.44 1010.46 1010.50 1010.57 1010.72 1010.93 1011.19 1011.49 1011.79 1012.07 1012.32 1012.56 1012.80 1013.05 1013.34 1013.67 1014.04 1014.44 1014.84
1012.34 1013.43 1014.25 1014.70 1014.73 1014.35 1013.66 1012.81 1011.94 1011.22 1010.74 1010.54 1010.59 1010.81 1011.10 1011.33 1011.43 1011.35 1011.12 1010.78 1010.42 1010.11 1009.92 1009.86 1009.93 1010.08 1010.25 1010.40 1010.49 1010.52 1010.51 1010.48 1010.48 1010.55 1010.69 1010.90 1011.16 1011.46 1011.74 1012.01 1012.27 1012.51 1012.76 1013.03 1013.35 1013.71 1014.11 1014.52 1014.92
1012.91 1013.85 1014.47 1014.70 1014.53 1014.00 1013.23 1012.37 1011.56 1010.93 1010.57 1010.47 1010.59 1010.83 1011.10 1011.30 1011.36 1011.27 1011.05 1010.77 1010.50 1010.30 1010.21 1010.23 1010.34 1010.49 1010.62 1010.70 1010.70 1010.63 1010.54 1010.45 1010.42 1010.48 1010.62 1010.84 1011.11 1011.40 1011.69 1011.96 1012.21 1012.47 1012.74 1013.04 1013.39 1013.79 1014.20 1014.62 1015.02
1013.23 1013.99 1014.40 1014.42 1014.07 1013.44 1012.65 1011.85 1011.15 1010.68 1010.45 1010.47 1010.66 1010.94 1011.19 1011.35 1011.38 1011.27 1011.08 1010.85 1010.67 1010.56 1010.56 1010.65 1010.78 1010.91 1010.98 1010.97 1010.87 1010.71 1010.53 1010.39 1010.34 1010.39 1010.53 1010.77 1011.05 1011.34 1011.63 1011.89 1012.15 1012.41 1012.70 1013.03 1013.41 1013.83 1014.27 1014.70 1015.10
1013.29 1013.83 1014.02 1013.85 1013.38 1012.69 1011.93 1011.22 1010.68 1010.37 1010.31 1010.45 1010.71 1011.01 1011.26 1011.40 1011.40 1011.29 1011.12 1010.96 1010.85 1010.84 1010.91 1011.04 1011.18 1011.27 1011.27 1011.17 1010.98 1010.73 1010.50 1010.33 1010.25 1010.30 1010.46 1010.70 1010.98 1011.27 1011.54 1011.79 1012.04 1012.29 1012.59 1012.94 1013.34 1013.79 1014.25 1014.69 1015.09
1013.07 1013.40 1013.39 1013.06 1012.48 1011.78 1011.08 1010.49 1010.11 1009.97 1010.05 1010.30 1010.64 1010.96 1011.21 1011.34 1011.34 1011.25 1011.12 1011.03 1011.00 1011.05 1011.18 1011.33 1011.46 1011.51 1011.45 1011.28 1011.02 1010.72 1010.45 1010.27 1010.20 1010.25 1010.42 1010.66 1010.93 1011.19 1011.43 1011.65 1011.86 1012.09 1012.38 1012.74 1013.16 1013.63 1014.11 1014.57 1014.99
1012.64 1012.77 1012.57 1012.11 1011.47 1010.78 1010.15 1009.69 1009.45 1009.46 1009.67 1010.00 1010.39 1010.74 1011.00 1011.13 1011.15 1011.10 1011.04 1011.01 1011.05 1011.17 1011.33 1011.50 1011.61 1011.62 1011.52 1011.30 1011.00 1010.69 1010.42 1010.24 1010.19 1010.26 1010.43 1010.65 1010.89 1011.11 1011.30 1011.46 1011.62 1011.81 1012.08 1012.43 1012.86 1013.35 1013.86 1014.35 1014.79
1012.10 1012.04 1011.69 1011.13 1010.45 1009.79 1009.24 1008.89 1008.77 1008.88 1009.17 1009.57 1009.99 1010.36 1010.63 1010.79 1010.85 1010.86 1010.86 1010.91 1011.01 1011.17 1011.36 1011.52 1011.62 1011.61 1011.48 1011.24 1010.95 1010.66 1010.41 1010.27 1010.24 1010.33 1010.49 1010.69 1010.88 1011.04 1011.15 1011.24 1011.33 1011.48 1011.72 1012.05 1012.49 1013.00 1013.54 1014.07 1014.55
1011.56 1011.36 1010.89 1010.26 1009.58 1008.95 1008.48 1008.21 1008.16 1008.34 1008.67 1009.09 1009.52 1009.90 1010.19 1010.38 1010.49 1010.57 1010.64 1010.75 1010.90 1011.08 1011.28 1011.44 1011.52 1011.49 1011.36 1011.15 1010.89 1010.63 1010.44 1010.34 1010.35 1010.44 1010.59 1010.75 1010.88 1010.97 1011.00 1011.02 1011.05 1011.15 1011.35 1011.67 1012.11 1012.64 1013.22 1013.79 1014.32
1011.13 1010.82 1010.30 1009.65 1008.99 1008.41 1007.99 1007.77 1007.77 1007.96 1008.29 1008.69 1009.10 1009.48 1009.78 1010.00 1010.16 1010.29 1010.42 1010.57 1010.75 1010.94 1011.13 1011.27 1011.33 1011.31 1011.20 1011.02 1010.82 1010.63 1010.49 1010.44 1010.47 1010.57 1010.69 1010.81 1010.88 1010.90 1010.86 1010.82 1010.79 1010.85 1011.03 1011.34 1011.78 1012.33 1012.94 1013.56 1014.13
1010.91 1010.55 1010.01 1009.39 1008.78 1008.26 1007.89 1007.70 1007.71 1007.87 1008.16 1008.51 1008.87 1009.21 1009.51 1009.75 1009.95 1010.12 1010.28 1010.44 1010.61 1010.78 1010.94 1011.05 1011.10 1011.08 1011.00 1010.87 1010.74 1010.62 1010.54 1010.53 1010.57 1010.66 1010.75 1010.82 1010.84 1010.80 1010.73 1010.64 1010.60 1010.64 1010.80 1011.10 1011.55 1012.11 1012.75 1013.39 1014.01
1010.93 1010.57 1010.07 1009.51 1008.98 1008.53 1008.21 1008.04 1008.01 1008.12 1008.33 1008.60 1008.89 1009.19 1009.46 1009.69 1009.89 1010.07 1010.23 1010.37 1010.50 1010.62 1010.72 1010.79 1010.82 1010.81 1010.77 1010.70 1010.62 1010.57 1010.54 1010.55 1010.60 1010.66 1010.71 1010.74 1010.73 1010.67 1010.58 1010.49 1010.45 1010.50 1010.66 1010.97 1011.41 1011.98 1012.62 1013.29 1013.93
1011.15 1010.84 1010.43 1009.98 1009.55 1009.19 1008.91 1008.74 1008.68 1008.70 1008.81 1008.98 1009.18 1009.40 1009.62 1009.82 1010.00 1010.15 1010.26 1010.35 1010.41 1010.46 1010.49 1010.50 1010.51 1010.50 1010.49 1010.47 1010.45 1010.44 1010.45 1010.47 1010.50 1010.53 1010.55 1010.55 1010.52 1010.46 1010.40 1010.35 1010.34 1010.41 1010.59 1010.90 1011.34 1011.89 1012.52 1013.19 1013.84
1011.50 1011.29 1011.00 1010.69 1010.39 1010.12 1009.89 1009.72 1009.59 1009.53 1009.52 1009.57 1009.66 1009.79 1009.94 1010.09 1010.22 1010.31 1010.35 1010.35 1010.32 1010.26 1010.21 1010.16 1010.14 1010.13 1010.14 1010.17 1010.20 1010.22 1010.24 1010.26 1010.26 1010.26 1010.25 1010.23 1010.21 1010.19 1010.17 1010.18 1010.23 1010.35 1010.55 1010.86 1011.28 1011.80 1012.40 1013.05 1013.70
1011.89 1011.80 1011.67 1011.51 1011.35 1011.18 1011.00 1010.81 1010.63 1010.46 1010.33 1010.25 1010.23 1010.26 1010.33 1010.41 1010.46 1010.47 1010.43 1010.32 1010.18 1010.02 1009.88 1009.77 1009.71 1009.70 1009.73 1009.79 1009.85 1009.90 1009.93 1009.92 1009.90 1009.87 1009.83 1009.82 1009.82 1009.84 1009.90 1009.98 1010.10 1010.26 1010.49 1010.79 1011.18 1011.66 1012.21 1012.83 1013.46
1012.21 1012.27 1012.31 1012.32 1012.30 1012.23 1012.09 1011.89 1011.63 1011.36 1011.10 1010.90 1010.76 1010.69 1010.67 1010.67 1010.65 1010.58 1010.44 1010.23 1009.99 1009.73 1009.49 1009.32 1009.23 1009.21 1009.26 1009.34 1009.43 1009.49 1009.52 1009.50 1009.45 1009.39 1009.35 1009.34 1009.38 1009.46 1009.59 1009.74 1009.93 1010.14 1010.38 1010.66 1011.01 1011.43 1011.93 1012.50 1013.11
1012.43 1012.63 1012.84 1013.03 1013.15 1013.16 1013.06 1012.83 1012.50 1012.12 1011.74 1011.41 1011.16 1010.99 1010.89 1010.82 1010.73 1010.58 1010.36 1010.07 1009.73 1009.38 1009.07 1008.84 1008.72 1008.69 1008.75 1008.85 1008.95 1009.02 1009.05 1009.02 1008.95 1008.89 1008.85 1008.86 1008.93 1009.07 1009.26 1009.49 1009.72 1009.96 1010.20 1010.46 1010.75 1011.11 1011.56 1012.08 1012.67
1012.51 1012.87 1013.25 1013.59 1013.83 1013.93 1013.84 1013.58 1013.17 1012.68 1012.18 1011.73 1011.38 1011.12 1010.95 1010.81 1010.67 1010.47 1010.19 1009.83 1009.42 1009.00 1008.64 1008.36 1008.20 1008.16 1008.22 1008.33 1008.44 1008.52 1008.55 1008.52 1008.46 1008.40 1008.37 1008.41 1008.52 1008.71 1008.95 1009.22 1009.48 1009.73 1009.95 1010.17 1010.42 1010.72 1011.11 1011.60 1012.17
1012.52 1013.02 1013.55 1014.04 1014.39 1014.55 1014.47 1014.17 1013.68 1013.08 1012.46 1011.89 1011.43 1011.10 1010.86 1010.68 1010.50 1010.27 1009.95 1009.55 1009.10 1008.63 1008.22 1007.90 1007.71 1007.65 1007.69 1007.79 1007.91 1008.00 1008.04 1008.02 1007.98 1007.94 1007.94 1008.01 1008.16 1008.38 1008.66 1008.94 1009.21 1009.45 1009.65 1009.83 1010.02 1010.28 1010.63 1011.09 1011.67
1012.52 1013.16 1013.83 1014.44 1014.88 1015.08 1015.00 1014.64 1014.07 1013.36 1012.63 1011.95 1011.40 1010.98 1010.69 1010.48 1010.27 1010.02 1009.69 1009.27 1008.78 1008.29 1007.83 1007.47 1007.24 1007.14 1007.15 1007.24 1007.34 1007.44 1007.49 1007.51 1007.50 1007.50 1007.54 1007.65 1007.83 1008.08 1008.37 1008.66 1008.91 1009.12 1009.29 1009.43 1009.59 1009.81 1010.14 1010.60 1011.18
1012.61 1013.36 1014.15 1014.86 1015.37 1015.59 1015.49 1015.08 1014.42 1013.61 1012.76 1011.98 1011.33 1010.84 1010.49 1010.24 1010.01 1009.75 1009.41 1008.97 1008.47 1007.95 1007.46 1007.05 1006.76 1006.61 1006.58 1006.63 1006.72 1006.81 1006.88 1006.93 1006.97 1007.02 1007.12 1007.28 1007.50 1007.77 1008.06 1008.34 1008.57 1008.75 1008.89 1009.00 1009.13 1009.34 1009.66 1010.13 1010.73
1012.83 1013.68 1014.55 1015.33 1015.88 1016.11 1015.98 1015.52 1014.77 1013.87 1012.92 1012.03 1011.29 1010.72 1010.31 1010.01 1009.75 1009.47 1009.11 1008.66 1008.14 1007.59 1007.05 1006.59 1006.24 1006.02 1005.92 1005.92 1005.97 1006.06 1006.15 1006.24 1006.34 1006.46 1006.63 1006.84 1007.11 1007.40 1007.70 1007.97 1008.18 1008.34 1008.45 1008.54 1008.67 1008.88 1009.21 1009.69 1010.31
1013.20 1014.10 1015.03 1015.84 1016.40 1016.62 1016.45 1015.93 1015.12 1014.13 1013.10 1012.12 1011.29 1010.64 1010.15 1009.79 1009.48 1009.15 1008.76 1008.29 1007.74 1007.14 1006.55 1006.02 1005.60 1005.30 1005.12 1005.06 1005.08 1005.15 1005.27 1005.40 1005.57 1005.77 1006.02 1006.31 1006.63 1006.96 1007.27 1007.54 1007.75 1007.89 1007.99 1008.08 1008.21 1008.43 1008.77 1009.27 1009.90
1013.66 1014.58 1015.51 1016.31 1016.85 1017.03 1016.83 1016.27 1015.41 1014.36 1013.26 1012.22 1011.31 1010.57 1010.00 1009.55 1009.17 1008.78 1008.33 1007.81 1007.21 1006.56 1005.91 1005.31 1004.80 1004.42 1004.17 1004.04 1004.01 1004.08 1004.21 1004.40 1004.65 1004.94 1005.28 1005.66 1006.05 1006.43 1006.78 1007.06 1007.28 1007.43 1007.53 1007.64 1007.78 1008.01 1008.37 1008.88 1009.52
1014.13 1015.03 1015.91 1016.65 1017.14 1017.27 1017.03 1016.44 1015.56 1014.49 1013.36 1012.27 1011.30 1010.48 1009.82 1009.27 1008.79 1008.31 1007.78 1007.18 1006.51 1005.80 1005.09 1004.42 1003.83 1003.37 1003.05 1002.86 1002.80 1002.86 1003.03 1003.28 1003.60 1004.00 1004.44 1004.92 1005.39 1005.84 1006.24 1006.57 1006.81 1006.98 1007.10 1007.23 1007.40 1007.65 1008.02 1008.52 1009.15
1014.53 1015.34 1016.12 1016.77 1017.16 1017.24 1016.97 1016.37 1015.50 1014.45 1013.32 1012.23 1011.22 1010.34 1009.58 1008.93 1008.32 1007.73 1007.09 1006.40 1005.65 1004.87 1004.09 1003.35 1002.71 1002.19 1001.81 1001.58 1001.51 1001.57 1001.77 1002.09 1002.51 1003.00 1003.56 1004.14 1004.71 1005.25 1005.71 1006.09 1006.37 1006.58 1006.74 1006.89 1007.08 1007.35 1007.72 1008.21 1008.81
1014.79 1015.47 1016.11 1016.61 1016.90 1016.91 1016.62 1016.03 1015.21 1014.22 1013.15 1012.08 1011.06 1010.14 1009.30 1008.53 1007.80 1007.07 1006.32 1005.52 1004.68 1003.82 1002.98 1002.19 1001.51 1000.95 1000.54 1000.29 1000.21 1000.30 1000.55 1000.94 1001.44 1002.05 1002.71 1003.40 1004.07 1004.69 1005.23 1005.67 1006.00 1006.25 1006.45 1006.63 1006.84 1007.12 1007.49 1007.96 1008.53
Thickness
5805 5804 5801 5791 5772 5752 5750 5764 5774 5779 5786 5795 5799 5794 5786 5780 5774 5770 5793 5802 5800 5796 5792 5787 5784 5780 5777 5774 5773 5771 5768 5766 5764 5762 5760 5758 5755 5753 5751 5749 5747 5745 5743 5742 5740 5739 5738 5737 5736
5805 5802 5795 5780 5757 5739 5750 5768 5774 5783 5793 5799 5799 5795 5787 5784 5790 5790 5794 5797 5797 5793 5789 5785 5782 5778 5775 5772 5770 5768 5766 5763 5761 5759 5757 5755 5752 5750 5748 5746 5745 5743 5741 5739 5738 5736 5735 5734 5733
5805 5802 5784 5766 5751 5744 5758 5775 5780 5790 5797 5797 5792 5792 5787 5783 5789 5791 5795 5795 5793 5790 5786 5782 5779 5776 5773 5770 5767 5765 5762 5760 5758 5756 5753 5751 5749 5747 5745 5743 5742 5740 5738 5737 5735 5734 5733 5731 5730
5801 5790 5778 5760 5755 5763 5771 5782 5786 5787 5792 5795 5791 5784 5787 5793 5793 5794 5795 5793 5789 5786 5783 5779 5776 5772 5769 5766 5764 5762 5760 5757 5755 5753 5750 5748 5746 5744 5742 5740 5738 5737 5735 5734 5733 5732 5730 5729 5728
5795 5779 5763 5750 5757 5771 5781 5788 5790 5784 5785 5789 5788 5779 5779 5790 5795 5794 5792 5789 5785 5781 5779 5776 5772 5769 5766 5763 5760 5759 5757 5755 5753 5750 5748 5745 5743 5742 5739 5738 5736 5734 5732 5731 5730 5729 5728 5726 5725
5781 5769 5749 5744 5759 5774 5784 5791 5790 5784 5784 5786 5784 5776 5775 5787 5788 5787 5787 5784 5781 5777 5774 5771 5768 5765 5762 5760 5758 5756 5754 5752 5750 5747 5745 5743 5740 5739 5737 5735 5733 5731 5730 5728 5727 5726 5725 5724 5723
5774 5760 5751 5753 5757 5768 5784 5792 5787 5782 5780 5783 5785 5772 5774 5780 5784 5784 5782 5779 5776 5773 5770 5767 5764 5762 5760 5757 5755 5753 5751 5749 5747 5745 5742 5740 5737 5735 5733 5731 5730 5729 5727 5726 5725 5724 5723 5722 5721
5782 5764 5755 5752 5756 5766 5785 5789 5790 5785 5781 5790 5787 5771 5768 5777 5781 5779 5776 5772 5770 5767 5764 5762 5760 5757 5755 5753 5751 5749 5747 5745 5743 5741 5739 5737 5735 5732 5730 5728 5727 5726 5724 5723 5723 5722 5721 5720 5718
5786 5757 5747 5756 5761 5770 5784 5783 5787 5791 5785 5784 5785 5781 5780 5780 5777 5772 5768 5765 5763 5761 5759 5757 5755 5753 5751 5749 5747 5746 5743 5741 5739 5737 5735 5733 5731 5729 5727 5725 5724 5723 5722 5721 5720 5719 5718 5717 5716
5774 5752 5760 5774 5777 5778 5782 5781 5782 5780 5775 5774 5776 5779 5779 5775 5770 5765 5762 5759 5756 5755 5754 5753 5751 5749 5747 5746 5744 5742 5739 5738 5735 5733 5731 5729 5727 5725 5723 5722 5721 5720 5719 5717 5717 5716 5715 5714 5713
5774 5764 5774 5781 5785 5784 5780 5780 5782 5775 5766 5771 5771 5771 5771 5768 5764 5760 5757 5755 5753 5753 5752 5750 5748 5745 5743 5741 5739 5737 5735 5733 5731 5729 5727 5724 5722 5721 5719 5718 5717 5716 5715 5714 5713 5712 5711 5711 5709
5773 5776 5780 5783 5788 5784 5780 5778 5774 5773 5773 5780 5777 5773 5768 5762 5759 5756 5753 5751 5749 5748 5747 5745 5743 5741 5739 5736 5735 5733 5730 5728 5726 5725 5723 5720 5718 5716 5715 5714 5713 5712 5710 5710 5708 5708 5707 5706 5705
5773 5776 5783 5784 5784 5781 5779 5773 5771 5769 5777 5778 5774 5768 5762 5758 5754 5752 5750 5746 5744 5742 5741 5740 5739 5736 5734 5732 5729 5728 5726 5724 5722 5721 5719 5716 5713 5711 5710 5709 5708 5708 5707 5706 5704 5704 5703 5702 5701
5776 5776 5777 5779 5779 5779 5772 5769 5766 5765 5772 5770 5765 5760 5757 5753 5750 5747 5744 5741 5739 5737 5736 5735 5733 5731 5728 5726 5723 5721 5719 5718 5717 5715 5713 5711 5709 5706 5705 5703 5703 5703 5703 5702 5700 5699 5698 5697 5696
5776 5769 5768 5772 5773 5772 5769 5755 5756 5763 5764 5759 5756 5754 5751 5749 5746 5742 5740 5737 5735 5733 5732 5731 5729 5726 5723 5720 5718 5715 5713 5712 5711 5709 5708 5706 5704 5702 5700 5699 5699 5698 5697 5697 5696 5694 5693 5692 5691
5767 5755 5746 5759 5765 5766 5757 5737 5751 5758 5755 5750 5749 5748 5744 5742 5740 5738 5736 5733 5731 5728 5726 5724 5724 5721 5717 5715 5712 5711 5708 5706 5704 5702 5701 5700 5698 5697 5695 5695 5694 5693 5692 5691 5690 5689 5687 5686 5685
5745 5736 5738 5747 5757 5757 5747 5735 5745 5751 5749 5743 5742 5740 5738 5735 5734 5733 5731 5728 5727 5724 5721 5719 5717 5714 5712 5709 5707 5705 5703 5699 5697 5696 5694 5693 5692 5691 5690 5690 5689 5688 5687 5686 5685 5684 5682 5680 5680
5736 5735 5735 5735 5745 5744 5734 5730 5738 5743 5742 5738 5736 5734 5732 5730 5729 5729 5727 5725 5723 5719 5716 5713 5710 5708 5706 5703 5701 5698 5696 5694 5692 5690 5688 5687 5686 5685 5685 5684 5684 5683 5682 5681 5680 5678 5677 5676 5675
5746 5737 5730 5734 5743 5734 5726 5724 5729 5734 5733 5730 5729 5727 5726 5725 5726 5725 5723 5721 5717 5713 5710 5707 5705 5702 5699 5696 5693 5690 5688 5687 5686 5685 5683 5682 5682 5681 5680 5679 5679 5678 5677 5676 5675 5674 5671 5670 5669
5743 5733 5728 5732 5739 5730 5721 5719 5725 5728 5727 5726 5724 5722 5721 5720 5719 5719 5717 5715 5711 5708 5706 5703 5699 5696 5694 5691 5688 5685 5683 5682 5681 5679 5678 5677 5677 5676 5676 5674 5674 5673 5672 5671 5670 5668 5666 5665 5664
5740 5733 5731 5728 5729 5727 5720 5710 5716 5722 5724 5723 5722 5720 5718 5717 5714 5713 5711 5708 5706 5703 5701 5699 5694 5691 5688 5685 5681 5678 5676 5674 5673 5672 5672 5672 5671 5670 5670 5669 5669 5668 5667 5666 5665 5664 5662 5660 5658
5732 5744 5738 5731 5716 5704 5711 5691 5706 5711 5713 5716 5715 5713 5712 5712 5710 5708 5705 5702 5700 5699 5696 5692 5688 5685 5682 5678 5674 5671 5668 5665 5666 5665 5665 5665 5665 5664 5664 5663 5663 5663 5662 5661 5660 5660 5658 5657 5654
5742 5746 5737 5728 5713 5702 5701 5690 5694 5704 5703 5707 5709 5710 5709 5707 5705 5703 5701 5698 5696 5694 5691 5687 5683 5679 5676 5672 5668 5665 5662 5660 5659 5658 5658 5658 5658 5658 5659 5658 5658 5658 5657 5656 5656 5655 5655 5653 5651
5748 5737 5727 5713 5702 5689 5696 5688 5687 5694 5700 5703 5705 5705 5704 5703 5701 5698 5696 5693 5691 5689 5685 5682 5677 5674 5671 5667 5664 5660 5657 5654 5652 5652 5651 5651 5651 5652 5653 5653 5653 5653 5653 5653 5652 5652 5652 5651 5648
5738 5716 5694 5689 5679 5683 5695 5687 5687 5702 5706 5704 5702 5701 5700 5697 5694 5691 5690 5687 5685 5683 5680 5676 5673 5669 5666 5662 5660 5657 5653 5650 5648 5647 5647 5646 5646 5647 5648 5649 5649 5649 5649 5649 5649 5648 5648 5647 5645
5731 5718 5691 5679 5674 5679 5688 5683 5691 5705 5706 5704 5700 5697 5694 5690 5687 5685 5684 5682 5679 5677 5674 5671 5668 5664 5661 5658 5656 5653 5650 5647 5645 5644 5643 5642 5642 5643 5644 5644 5644 5645 5645 5645 5645 5644 5644 5643 5642
5728 5714 5712 5689 5681 5673 5676 5685 5694 5701 5698 5696 5693 5690 5686 5685 5683 5681 5679 5677 5675 5672 5670 5667 5663 5660 5658 5655 5653 5650 5647 5645 5643 5641 5640 5640 5640 5640 5641 5640 5641 5641 5642 5642 5641 5640 5640 5640 5639
5732 5715 5696 5684 5671 5664 5673 5675 5674 5684 5686 5686 5684 5681 5680 5679 5677 5676 5675 5673 5671 5669 5666 5664 5660 5657 5655 5652 5649 5647 5644 5642 5640 5639 5638 5638 5638 5637 5637 5637 5638 5638 5639 5638 5638 5637 5637 5636 5635
5720 5709 5692 5677 5675 5663 5657 5666 5686 5682 5682 5679 5678 5677 5674 5673 5671 5670 5670 5668 5667 5664 5662 5660 5657 5654 5651 5649 5646 5644 5642 5640 5638 5636 5636 5635 5634 5634 5634 5634 5635 5635 5635 5635 5634 5634 5633 5633 5632
5722 5709 5694 5682 5672 5663 5656 5662 5688 5683 5679 5676 5674 5674 5672 5670 5668 5667 5665 5663 5662 5660 5658 5656 5653 5650 5648 5646 5643 5641 5639 5637 5636 5635 5634 5633 5632 5632 5631 5632 5632 5632 5632 5631 5630 5630 5630 5629 5628